User: anonymous   Login
Location: Unspecified
(0.0000°N, 0.0000°E)
Time: 07:45:56
(UTC+00:00)
Language:

Transit VE-5 - Orbit

View from above orbital plane
View from above orbital plane
View from above satellite
View from above satellite

Ground track
Ground track

The orbit data is extracted from the following two-line orbital elements,

1   959U 64083C   18112.78775571 +.00000051 +00000-0 +53546-4 0  9997
2   959 089.9994 187.5877 0044079 087.5813 028.2496 13.61546399644969
Epoch (UTC): 22 April 2018 18:54:22
Eccentricity: 0.0044079
inclination: 89.9994°
perigee height: 997 km
apogee height: 1063 km
right ascension of ascending node: 187.5877°
argument of perigee: 87.5813°
revolutions per day: 13.61546399
mean anomaly at epoch: 28.2496°
orbit number at epoch: 64496

The dashed part of the orbit path shows where the satellite is in the earth's shadow,  

DLR